TimeCDT,TemperatureF,Dew PointF,Humidity,Sea Level PressureIn,VisibilityMPH,Wind Direction,Wind SpeedMPH,Gust SpeedMPH,PrecipitationIn,Events,Conditions,WindDirDegrees,DateUTC
12:53 AM,44.1,41.0,89,30.30,10.0,Calm,Calm,-,N/A,,Clear,0,2013-10-26 05:53:00
1:53 AM,44.1,39.9,85,30.29,8.0,Calm,Calm,-,N/A,,Clear,0,2013-10-26 06:53:00
2:53 AM,43.0,39.9,89,30.27,10.0,Calm,Calm,-,N/A,,Clear,0,2013-10-26 07:53:00
3:53 AM,42.1,39.0,89,30.26,10.0,Calm,Calm,-,N/A,,Clear,0,2013-10-26 08:53:00
4:53 AM,42.1,39.0,89,30.26,10.0,Calm,Calm,-,N/A,,Clear,0,2013-10-26 09:53:00
5:53 AM,42.1,39.0,89,30.27,10.0,Calm,Calm,-,N/A,,Clear,0,2013-10-26 10:53:00
6:53 AM,41.0,37.9,89,30.29,10.0,Calm,Calm,-,N/A,,Clear,0,2013-10-26 11:53:00
7:53 AM,42.1,39.0,89,30.28,10.0,Calm,Calm,-,N/A,,Clear,0,2013-10-26 12:53:00
8:53 AM,51.1,44.1,77,30.30,10.0,Calm,Calm,-,N/A,,Clear,0,2013-10-26 13:53:00
9:53 AM,57.9,43.0,58,30.30,10.0,Variable,3.5,-,N/A,,Clear,0,2013-10-26 14:53:00
10:53 AM,63.0,43.0,48,30.29,10.0,South,5.8,-,N/A,,Clear,190,2013-10-26 15:53:00
11:53 AM,68.0,42.1,39,30.27,10.0,South,4.6,-,N/A,,Clear,180,2013-10-26 16:53:00
12:53 PM,72.0,41.0,33,30.25,10.0,South,5.8,-,N/A,,Clear,190,2013-10-26 17:53:00
1:53 PM,75.0,44.1,33,30.22,10.0,Calm,Calm,-,N/A,,Clear,0,2013-10-26 18:53:00
2:53 PM,77.0,46.0,33,30.19,10.0,SW,5.8,-,N/A,,Clear,230,2013-10-26 19:53:00
3:53 PM,78.1,46.9,33,30.18,10.0,South,5.8,-,N/A,,Scattered Clouds,180,2013-10-26 20:53:00
4:53 PM,75.9,48.9,38,30.17,10.0,South,3.5,-,N/A,,Partly Cloudy,180,2013-10-26 21:53:00
5:53 PM,72.0,54.0,53,30.16,10.0,Calm,Calm,-,N/A,,Partly Cloudy,0,2013-10-26 22:53:00
6:53 PM,61.0,55.9,83,30.15,10.0,Calm,Calm,-,N/A,,Clear,0,2013-10-26 23:53:00
7:53 PM,57.9,54.0,87,30.16,10.0,Calm,Calm,-,N/A,,Clear,0,2013-10-27 00:53:00
8:53 PM,55.0,52.0,89,30.16,1.5,Calm,Calm,-,N/A,,Clear,0,2013-10-27 01:53:00
9:00 PM,55.4,51.8,88,30.16,3.0,Calm,Calm,-,N/A,,Clear,0,2013-10-27 02:00:00
9:53 PM,54.0,52.0,93,30.15,8.0,Calm,Calm,-,N/A,,Clear,0,2013-10-27 02:53:00
10:53 PM,53.1,51.1,93,30.15,8.0,Calm,Calm,-,N/A,,Clear,0,2013-10-27 03:53:00
11:14 PM,51.8,50.0,94,30.14,2.5,Calm,Calm,-,N/A,,Clear,0,2013-10-27 04:14:00
11:23 PM,53.6,51.8,94,30.14,4.0,Calm,Calm,-,N/A,,Clear,0,2013-10-27 04:23:00
11:53 PM,52.0,50.0,93,30.13,5.0,Calm,Calm,-,N/A,,Clear,0,2013-10-27 04:53:00